Location: Baia Mare
(47.6567°N, 23.5850°E)
Time: 12:30:00
(UTC+02:00)

ISS - Pass Details

Date: 07 January 2019
Orbit: 404 x 407 km, 51.6° (Epoch: 16 January)

Event Time Altitude Azimuth Distance (km) Brightness Sun altitude
Exits shadow 07:06:41 17° 289° (WNW) 1,121 -2.3 -10.8°
Maximum altitude 07:09:05 67° 208° (SSW) 445 -3.7 -10.4°
Drops below altitude 10° 07:12:21 10° 126° (SE) 1,464 0.5 -9.9°
Sets 07:14:26 0° 123° (ESE) 2,321 2.0 -9.6°
